Content
SEND FEEDBACK

Daily
Averages
Monthly
Summary
United States of America

LORENTZ, WEST VIRGINIA


Home > North America > United States > West Virginia
Elevation: 465 meters     Latitude: 39 00N     Longitude: 080 16W

WEATHER
 
SELECT A DAY
Number of Records: 38,777;   Date Range: 9/1/12 - 8/30/14
 
SHARE

PRINT THIS DATA

[ ← Previous Day ]
WEATHER ALMANAC - 31 JANUARY, 2013
[ Next Day → ]
[ °F ]   °C
Weather ElementAverageHighLow
Temperature-1.7 °C7 °C (12:35 am)-4 °C (5:15 pm)
Dewpoint-4.9 °C4 °C (12:35 am)-10 °C (3:35 pm)
Humidity79.6 %100 % (1:55 am)59 % (10:35 am)
Barometer1006.8 hPa1011.9 hPa (7:15 pm)993.6 hPa (12:35 am)
Wind Speed25.7 km/h46.3 km/h (2:55 am)
Wind Gust74 km/h (5:35 am)
Weather ElementAverage
Visibility9.8 km
Wind DirectionWSW (245.1 °)

Weather ElementTotal
Precipitation227.08 mm
Heating Degree Days16.8 (Base 18.3)
Averaged from 68 records on 31 January, 2013
WEATHER CONDITIONS BREAKOUT
WIND DIRECTION BREAKOUT
WEATHER BY HOUR - 31 JANUARY, 2013
[ °F ]   °C
Local TimeTemperatureDewpointHumidityBarometerVisibilityWind DirectionWind SpeedGust SpeedPrecipitationEventsConditions
12:35 AM7 °C4 °C81 %993.6 hPa16.1 kmSW (230°)24.1 km/h35.2 km/hScattered Clouds
12:55 AM7 °C4 °C81 %993.6 hPa14.5 kmWSW (250°)31.5 km/h37 km/hRainLight Rain
1:15 AM4 °C2 °C87 %995.6 hPa14.5 kmWest (280°)27.8 km/h64.9 km/h0.51 mmRainLight Rain
1:55 AM2 °C2 °C100 %997 hPa6.4 kmWest (280°)35.2 km/h46.3 km/h1.52 mmOvercast
2:15 AM2 °C1 °C93 %997.6 hPa11.3 kmWest (260°)35.2 km/h55.5 km/h0.25 mmRainLight Rain
2:35 AM2 °C0 °C87 %998 hPa16.1 kmWest (260°)37 km/h64.9 km/h0.25 mmRainLight Rain
2:55 AM2 °C0 °C87 %998.3 hPa14.5 kmWest (260°)46.3 km/h64.9 km/h0.51 mmMostly Cloudy
3:15 AM1 °C0 °C93 %999 hPa4.8 kmWest (260°)33.3 km/h57.5 km/h1.02 mmRainLight Rain
3:35 AM1 °C-1 °C87 %999 hPa16.1 kmWSW (250°)31.5 km/h64.9 km/h1.27 mmOvercast
3:55 AM1 °C-1 °C87 %999.7 hPa12.9 kmWest (260°)40.7 km/h53.8 km/h1.27 mmSnowLight Snow
4:15 AM0 °C0 °C100 %1000.3 hPa0.3 kmCalm18.03 mmSnowHeavy Snow
4:35 AM0 °C0 °C100 %1001 hPa1.3 kmWest (280°)27.8 km/h44.4 km/h34.04 mmSnowLight Snow
4:55 AM0 °C-1 °C93 %1001.4 hPa1.3 kmWest (260°)33.3 km/h44.4 km/h41.15 mmSnowLight Snow
5:15 AM0 °C-2 °C87 %1001.7 hPa4.8 kmWest (280°)29.6 km/h53.8 km/h2.54 mmOvercast
5:35 AM0 °C-3 °C80 %1002.4 hPa8 kmWest (260°)33.3 km/h74 km/h2.54 mmMostly Cloudy
5:55 AM-1 °C-4 °C80 %1002.7 hPa8 kmWSW (250°)38.9 km/h62.9 km/h3.05 mmHaze
6:15 AM-1 °C-5 °C75 %1003.4 hPa16.1 kmWest (270°)38.9 km/h59.2 km/hMostly Cloudy
6:35 AM-1 °C-5 °C75 %1003.7 hPa16.1 kmWest (260°)33.3 km/h51.8 km/hMostly Cloudy
6:55 AM-1 °C-5 °C75 %1003.7 hPa14.5 kmWest (260°)24.1 km/h50.1 km/hMostly Cloudy
7:15 AM-1 °C-4 °C80 %1004.1 hPa8 kmSW (220°)22.2 km/h31.5 km/h0.25 mmSnowLight Snow
7:35 AM-2 °C-3 °C93 %1004.7 hPa0.8 kmWSW (240°)31.5 km/h42.6 km/h8.64 mmSnowHeavy Snow
7:55 AM-2 °C-4 °C86 %1005.1 hPa8 kmWSW (250°)29.6 km/h44.4 km/h15.75 mmRainLight Rain
8:15 AM-1 °C-6 °C69 %1005.4 hPa16.1 kmWest (260°)33.3 km/h48.1 km/hScattered Clouds
8:35 AM-1 °C-7 °C64 %1005.8 hPa16.1 kmWSW (250°)33.3 km/h53.8 km/hScattered Clouds
8:55 AM-2 °C-7 °C69 %1006.1 hPa14.5 kmWest (270°)27.8 km/h44.4 km/hSnowLight Snow
9:15 AM-2 °C-6 °C74 %1006.4 hPa4.8 kmWest (260°)37 km/h51.8 km/h0.51 mmSnowLight Snow
9:35 AM-2 °C-6 °C74 %1006.8 hPa8 kmWest (260°)35.2 km/h50.1 km/h0.76 mmSnowLight Snow
9:55 AM-2 °C-7 °C69 %1007.1 hPa16.1 kmWest (260°)37 km/h42.6 km/h0.76 mmScattered Clouds
10:15 AM-2 °C-7 °C69 %1007.8 hPa12.9 kmWest (260°)40.7 km/h55.5 km/hMostly Cloudy
10:35 AM-2 °C-9 °C59 %1008.1 hPa4 kmWSW (250°)42.6 km/h57.5 km/hLight Drizzle
10:55 AM-2 °C-8 °C64 %1008.5 hPa16.1 kmWSW (250°)25.9 km/h53.8 km/hScattered Clouds
11:15 AM-2 °C-7 °C69 %1008.5 hPa11.3 kmWSW (250°)33.3 km/h42.6 km/hSnowLight Snow
11:35 AM-3 °C-6 °C80 %1008.8 hPa1.6 kmWSW (240°)24.1 km/h53.8 km/h5.59 mmSnowSnow
11:55 AM-3 °C-5 °C86 %1008.8 hPa0.8 kmWSW (250°)27.8 km/h38.9 km/h20.83 mmSnowLight Snow
12:15 PM-3 °C-5 °C86 %1008.8 hPa2.4 kmWSW (240°)25.9 km/h37 km/h2.03 mmOvercast
12:55 PM-3 °C-7 °C74 %1008.5 hPa6.4 kmWSW (250°)25.9 km/h48.1 km/h2.54 mmSnowLight Snow
1:15 PM-3 °C-6 °C80 %1008.5 hPa4 kmWest (260°)29.6 km/h44.4 km/h1.02 mmSnowLight Snow
1:35 PM-3 °C-6 °C80 %1008.5 hPa3.2 kmWest (270°)16.7 km/h27.8 km/h2.29 mmSnowLight Snow
1:55 PM-3 °C-5 °C86 %1008.8 hPa0.3 kmWNW (290°)20.4 km/h37 km/h19.56 mmSnowHeavy Snow
2:15 PM-3 °C-6 °C80 %1009.1 hPa3.2 kmWSW (250°)35.2 km/h50.1 km/h1.52 mmHaze
2:35 PM-3 °C-6 °C80 %1009.5 hPa0.3 kmWest (260°)31.5 km/h59.2 km/h10.16 mmSnowHeavy Snow
2:55 PM-3 °C-6 °C80 %1010.2 hPa1.3 kmWest (270°)31.5 km/h51.8 km/h23.62 mmSnowLight Snow
3:15 PM-3 °C-8 °C69 %1010.5 hPa4 kmWest (270°)37 km/h44.4 km/hHaze
3:35 PM-3 °C-10 °C59 %1010.8 hPa16.1 kmWest (260°)40.7 km/h57.5 km/hClear
3:55 PM-3 °C-9 °C64 %1010.8 hPa16.1 kmWest (260°)22.2 km/h27.8 km/hScattered Clouds
4:15 PM-3 °C-9 °C64 %1010.8 hPa16.1 kmWest (280°)24.1 km/h31.5 km/hMostly Cloudy
4:55 PM-3 °C-9 °C64 %1011.2 hPa14.5 kmWNW (290°)16.7 km/h31.5 km/hPartly Cloudy
5:15 PM-4 °C-9 °C69 %1011.2 hPa16.1 kmWest (270°)16.7 km/h25.9 km/hScattered Clouds
5:35 PM-4 °C-8 °C74 %1011.5 hPa16.1 kmWest (280°)16.7 km/h25.9 km/hMostly Cloudy
5:55 PM-4 °C-8 °C74 %1011.5 hPa16.1 kmWSW (250°)16.7 km/hMostly Cloudy
6:15 PM-4 °C-8 °C74 %1011.5 hPa16.1 kmSW (230°)14.8 km/hPartly Cloudy
6:35 PM-4 °C-8 °C74 %1011.5 hPa16.1 kmWSW (240°)18.5 km/h25.9 km/hPartly Cloudy
6:55 PM-3 °C-8 °C69 %1011.5 hPa16.1 kmWSW (240°)20.4 km/hMostly Cloudy
7:15 PM-3 °C-8 °C69 %1011.9 hPa16.1 kmWSW (250°)16.7 km/hOvercast
7:35 PM-3 °C-8 °C69 %1011.5 hPa16.1 kmSW (220°)18.5 km/hMostly Cloudy
7:55 PM-4 °C-8 °C74 %1011.5 hPa16.1 kmSW (220°)16.7 km/hClear
8:15 PM-4 °C-7 °C80 %1011.9 hPa16.1 kmSW (220°)14.8 km/hClear
8:35 PM-4 °C-7 °C80 %1011.5 hPa16.1 kmSW (230°)16.7 km/hClear
8:55 PM-4 °C-7 °C80 %1011.5 hPa16.1 kmSW (220°)16.7 km/hPartly Cloudy
9:15 PM-3 °C-7 °C74 %1011.5 hPa16.1 kmSW (220°)14.8 km/hMostly Cloudy
9:35 PM-3 °C-6 °C80 %1011.5 hPa6.4 kmSSW (210°)16.7 km/hMostly Cloudy
9:55 PM-4 °C-5 °C93 %1011.2 hPa4 kmSW (220°)13 km/h0.51 mmSnowLight Snow
10:15 PM-4 °C-5 °C93 %1011.2 hPa8 kmSSW (200°)11.1 km/hSnowLight Snow
10:35 PM-3 °C-5 °C86 %1010.8 hPa4.8 kmSSW (200°)11.1 km/hSnowLight Snow
10:55 PM-4 °C-4 °C100 %1010.5 hPa2.9 kmSSW (210°)11.1 km/h1.02 mmSnowLight Snow
11:15 PM-3 °C-4 °C93 %1010.2 hPa3.2 kmSSW (210°)9.3 km/h0.25 mmSnowLight Snow
11:35 PM-3 °C-4 °C93 %1010.2 hPa4 kmSSW (200°)9.3 km/h0.51 mmSnowLight Snow
11:55 PM-3 °C-4 °C93 %1009.5 hPa3.2 kmSSW (200°)13 km/h1.02 mmSnowLight Snow
Hourly data recorded from KW22, located 0 kilometers away from Lorentz, West Virginia







STORIES FROM OUR PARTNERS